Showing default

ALSAT 1N, 41789

Orbit data source: Space-Track

ALSAT 1N, 41789 is an Algerian payload satellite in SSO that was launched on Mon, 26 Sep 2016 UTC via a PSLV launch vehicle from the Sirharikota (SRI). Payload-class satellites include a variety of spacecraft equipped with specific instruments for various scientific and technological missions. These include communications satellites like Starlink; space stations such as the ISS; scientific satellites like the Hubble; Earth observation satellites from companies like Planet Labs, Umbra, and HawkEye 360; GPS; miniature CubeSats for education and research; and military/defense satellites.

Loading next visibility...
Identifier
41789, 2016-059G
Orbit
SSO
Country
Flag of DZDZ / ALG
Related business
Manufacturer
ASAL/SSC
Mission
Non-operational Civil Technology
Bus & Motor
CUBESAT 3U, Unknown motor
Mass
7 kg wet, 7 kg dry
Launch date (UTC)
2016-09-26 (9 years ago)
Launch vehicle
PSLV
Launch site
Sirharikota (SRI)
Object type
Payload
Rocket body
Debris
Shape & HBR
Box, 0.1 m
Radar Cross Section
0.035 m², Small (<0.1 m²)

Expand to show TLE details & history
Last TLE update: 12 hours ago

TLE from 12 hours ago
0 ALSAT 1N
1 41789U 16059G   25310.25420723  .00001301  00000-0  23009-3 0  9998
2 41789  97.8036 318.6287 0026154 177.6067 182.5269 14.68741415487273
Epoch: 2025-11-06T06:06Z
TLE epoch observation values (Epoch: 2025-11-06T06:06:03.504Z)
Latitude
-0.00003°
Longitude
-178.60106°
Altitude
686.505 km
Speed
7.503 km/s
True Right ascension
21h 14m 30s
True Declination
0° 00' 00"
Sunlit
Object was in daylight at epoch
Visualization orbit readout
Latitude
Unknown
Longitude
Unknown
Altitude
Unknown
Speed
Unknown
Apparent Right ascension
Unknown
Apparent Declination
Unknown
Sunlit
N/A
Visualization observer readout
Local Sidereal Time
14:04:45
Azimuth
Unknown
Elevation
Unknown
Doppler factor
Unknown
Orbital elements
Apogee altitude
680.554 km
Perigee altitude
643.727 km
Semi-major axis
7,040.277 km
Eccentricity
0.00262
Inclination
97.8036°
RAAN
318.6287°
Arg. of periapsis
177.6067°
True anomaly
182.51373°
Mean anomaly
182.5269°
Eccentric anomaly
182.52031°
Mean motion
3.67416 °/min
Orbital period
97.98 mins
BSTAR
0.00023009
Loading maneuver chart data...
Computing Atmospheric mass density...
Loading historical data...
Loading historical data...
Loading historical data...
Loading historical data...
Loading historical data...
Loading historical data...
Loading historical data...

Documentation

Showing up to 5 results
|